EW5545 Weather Reports


Display with metric or nautical units.
time (UTC)temp
F
wind
direction
speed
MPH
gust
MPH
rain 1hr
in
rain 24hr
in
rain mn
in
humidity
%
barometer
mb
20260505114006 69 174 5.0 12.0 0.00 0.00 0.00 47 1015.9
20260505113006 70 213 6.0 10.0 0.00 0.00 0.00 48 1015.9
20260505112506 70 186 4.0 12.0 0.00 0.00 0.00 49 1015.9
20260505112007 70 182 7.0 13.0 0.00 0.00 0.00 48 1015.9
20260505111508 70 195 5.0 9.0 0.00 0.00 0.00 48 1015.9
20260505111006 70 208 5.0 9.0 0.00 0.00 0.00 46 1016.0
20260505110507 70 184 5.0 10.0 0.00 0.00 0.00 44 1016.0
20260505101506 72 199 8.0 14.0 0.00 0.00 0.00 43 1015.7
20260505101011 72 184 6.0 13.0 0.00 0.00 0.00 46 1015.7
20260505100506 72 206 8.0 15.0 0.00 0.00 0.00 46 1015.7
20260505095506 73 182 6.0 13.0 0.00 0.00 0.00 44 1015.7
20260505095018 73 221 6.0 10.0 0.00 0.00 0.00 46 1015.7
20260505094506 73 179 5.0 10.0 0.00 0.00 0.00 48 1015.7
20260505094005 72 169 7.0 14.0 0.00 0.00 0.00 49 1015.7
20260505093507 72 211 5.0 14.0 0.00 0.00 0.00 51 1015.8
20260505092507 71 192 7.0 14.0 0.00 0.00 0.00 51 1016.0
20260505091506 72 213 9.0 14.0 0.00 0.00 0.00 49 1015.9
20260505091007 72 217 7.0 13.0 0.00 0.00 0.00 50 1015.9
20260505090508 72 197 9.0 14.0 0.00 0.00 0.00 52 1015.9
20260505090007 72 167 4.0 14.0 0.00 0.00 0.00 52 1015.8
20260505084007 70 211 6.0 14.0 0.00 0.00 0.00 53 1015.6
20260505083511 70 209 6.0 12.0 0.00 0.00 0.00 53 1015.7
20260505082007 70 200 8.0 12.0 0.00 0.00 0.00 53 1015.7
20260505081506 70 202 9.0 13.0 0.00 0.00 0.00 53 1015.7
20260505081006 70 191 5.0 12.0 0.00 0.00 0.00 53 1015.9
20260505080505 69 195 8.0 15.0 0.00 0.00 0.00 52 1015.9
20260505080010 69 192 7.0 14.0 0.00 0.00 0.00 54 1015.8
20260505075011 68 210 7.0 12.0 0.00 0.00 0.00 55 1015.8
20260505074505 68 209 7.0 12.0 0.00 0.00 0.00 54 1015.8
20260505073507 68 174 6.0 12.0 0.00 0.00 0.00 54 1015.8
20260505073005 68 210 7.0 12.0 0.00 0.00 0.00 54 1016.0
20260505072505 68 164 5.0 14.0 0.00 0.00 0.00 55 1016.1
20260505072006 67 196 7.0 14.0 0.00 0.00 0.00 54 1016.2
20260505071505 67 176 5.0 12.0 0.00 0.00 0.00 55 1016.1
20260505071007 66 167 7.0 14.0 0.00 0.00 0.00 55 1016.0
20260505070506 66 206 6.0 13.0 0.00 0.00 0.00 55 1016.1
20260505070006 66 218 6.0 12.0 0.00 0.00 0.00 56 1016.0
20260505064507 65 180 6.0 15.0 0.00 0.00 0.00 57 1016.1
20260505063509 65 187 4.0 12.0 0.00 0.00 0.00 60 1016.1
20260505062507 64 214 4.0 13.0 0.00 0.00 0.00 61 1016.2
20260505061506 63 203 5.0 10.0 0.00 0.00 0.00 64 1016.2
20260505061006 63 182 6.0 10.0 0.00 0.00 0.00 65 1016.2
20260505060506 63 207 5.0 10.0 0.00 0.00 0.00 65 1016.1
20260505060007 62 212 5.0 8.0 0.00 0.00 0.00 65 1016.1
20260505055515 62 184 6.0 10.0 0.00 0.00 0.00 65 1016.0
20260505055006 61 189 5.0 9.0 0.00 0.00 0.00 66 1016.0
20260505054516 61 202 4.0 10.0 0.00 0.00 0.00 67 1015.9
20260505054007 61 193 5.0 9.0 0.00 0.00 0.00 67 1015.9
20260505053506 61 182 3.0 10.0 0.00 0.00 0.00 66 1015.9
20260505053005 61 181 3.0 10.0 0.00 0.00 0.00 66 1015.8
20260505052507 61 181 3.0 9.0 0.00 0.00 0.00 66 1015.8
20260505052007 60 196 5.0 8.0 0.00 0.00 0.00 66 1015.7
20260505051505 60 209 3.0 7.0 0.00 0.00 0.00 66 1015.7
20260505051010 60 204 3.0 8.0 0.00 0.00 0.00 65 1015.7
20260505041507 56 198 3.0 7.0 0.00 0.00 0.00 68 1015.5
20260505041005 56 185 3.0 8.0 0.00 0.00 0.00 68 1015.5
20260505040511 56 201 5.0 8.0 0.00 0.00 0.00 68 1015.5
20260505040007 56 213 4.0 8.0 0.00 0.00 0.00 68 1015.5
20260505035507 56 207 5.0 7.0 0.00 0.00 0.00 67 1015.5
20260505035006 56 190 2.0 6.0 0.00 0.00 0.00 67 1015.5
20260505034506 56 198 2.0 6.0 0.00 0.00 0.00 67 1015.5
20260505034007 56 205 2.0 6.0 0.00 0.00 0.00 66 1015.5
20260505033512 56 197 3.0 6.0 0.00 0.00 0.00 66 1015.5
20260505033007 56 205 3.0 7.0 0.00 0.00 0.00 65 1015.5
20260505032507 56 204 3.0 6.0 0.00 0.00 0.00 65 1015.6
20260505032006 56 200 3.0 5.0 0.00 0.00 0.00 66 1015.6
20260505031506 56 204 2.0 5.0 0.00 0.00 0.00 66 1015.6
20260505031007 57 195 2.0 5.0 0.00 0.00 0.00 64 1015.7
20260505030006 57 211 3.0 5.0 0.00 0.00 0.00 63 1015.7
20260505025505 57 203 2.0 6.0 0.00 0.00 0.00 64 1015.8
20260505025007 56 202 3.0 5.0 0.00 0.00 0.00 65 1015.8
20260505024505 56 189 1.0 2.0 0.00 0.00 0.00 66 1015.8
20260505024009 56 188 1.0 2.0 0.00 0.00 0.00 65 1015.9
20260505023507 56 192 1.0 2.0 0.00 0.00 0.00 65 1015.9
20260505023007 56 187 0.0 3.0 0.00 0.00 0.00 66 1015.9
20260505022506 56 187 1.0 3.0 0.00 0.00 0.00 66 1015.9
20260505022007 56 187 0.0 1.0 0.00 0.00 0.00 64 1015.9
20260505021508 57 188 0.0 2.0 0.00 0.00 0.00 63 1015.9
20260505021008 58 189 1.0 2.0 0.00 0.00 0.00 61 1015.8
20260505020506 58 194 1.0 3.0 0.00 0.00 0.00 60 1015.8
20260505020015 58 194 2.0 5.0 0.00 0.00 0.00 60 1015.8
20260505015506 58 205 2.0 3.0 0.00 0.00 0.00 61 1015.8
20260505014508 58 203 1.0 3.0 0.00 0.00 0.00 61 1015.9
20260505013506 58 188 1.0 3.0 0.00 0.00 0.00 60 1015.8
20260505013005 59 187 1.0 3.0 0.00 0.00 0.00 60 1015.8
20260505012505 59 198 1.0 5.0 0.00 0.00 0.00 59 1015.8
20260505011506 59 204 1.0 3.0 0.00 0.00 0.00 58 1015.9
20260505010507 59 198 2.0 3.0 0.00 0.00 0.00 59 1015.9
20260505010010 59 202 2.0 3.0 0.00 0.00 0.00 59 1016.0
20260505005505 59 204 2.0 3.0 0.00 0.00 0.00 60 1016.0
20260505005007 59 197 2.0 3.0 0.00 0.00 0.00 60 1016.0
20260505004507 58 197 2.0 3.0 0.00 0.00 0.00 60 1016.0
20260505003507 58 202 2.0 3.0 0.00 0.00 0.00 61 1016.1
20260505003007 58 203 2.0 3.0 0.00 0.00 0.00 61 1016.1
20260505002507 58 197 2.0 5.0 0.00 0.00 0.00 61 1016.2
20260505001505 58 200 2.0 5.0 0.00 0.00 0.00 61 1016.2
20260505001005 58 194 3.0 5.0 0.00 0.00 0.00 61 1016.2
20260505000507 58 203 3.0 6.0 0.00 0.00 0.00 61 1016.3
20260505000005 58 204 3.0 6.0 0.00 0.00 0.00 61 1016.3
20260504235505 59 209 3.0 6.0 0.00 0.00 0.00 61 1016.3
20260504234506 59 211 4.0 7.0 0.00 0.00 0.00 60 1016.4
20260504234006 59 209 3.0 5.0 0.00 0.00 0.00 59 1016.4
20260504233505 60 211 2.0 6.0 0.00 0.00 0.00 58 1016.5
20260504233011 60 196 3.0 6.0 0.00 0.00 0.00 58 1016.5
20260504232506 60 204 3.0 6.0 0.00 0.00 0.00 58 1016.6
20260504232007 60 196 3.0 6.0 0.00 0.00 0.00 58 1016.7
20260504231506 60 201 3.0 6.0 0.00 0.00 0.00 58 1016.7
20260504230011 60 199 3.0 6.0 0.00 0.00 0.00 58 1017.0
20260504225506 60 199 3.0 6.0 0.00 0.00 0.00 58 1016.9
20260504225006 60 203 3.0 6.0 0.00 0.00 0.00 58 1017.0
20260504224505 59 202 3.0 6.0 0.00 0.00 0.00 59 1017.0
20260504224007 59 204 3.0 6.0 0.00 0.00 0.00 59 1017.0
20260504223005 60 202 2.0 6.0 0.00 0.00 0.00 59 1017.1
20260504222506 60 206 3.0 8.0 0.00 0.00 0.00 59 1017.2
20260504222007 60 209 4.0 7.0 0.00 0.00 0.00 59 1017.2
20260504221506 60 209 5.0 8.0 0.00 0.00 0.00 59 1017.2
20260504221007 60 209 5.0 7.0 0.00 0.00 0.00 59 1017.2
20260504220510 60 203 3.0 6.0 0.00 0.00 0.00 59 1017.3
20260504220011 60 195 3.0 5.0 0.00 0.00 0.00 59 1017.3
20260504215510 60 214 3.0 6.0 0.00 0.00 0.00 59 1017.3
20260504215011 60 213 3.0 6.0 0.00 0.00 0.00 59 1017.2
20260504214506 60 200 3.0 5.0 0.00 0.00 0.00 59 1017.2
20260504214005 60 193 3.0 6.0 0.00 0.00 0.00 59 1017.2
20260504213511 60 200 3.0 5.0 0.00 0.00 0.00 60 1017.3
20260504213006 60 201 3.0 7.0 0.00 0.00 0.00 60 1017.3
20260504212011 60 198 3.0 7.0 0.00 0.00 0.00 60 1017.2
20260504211507 61 204 3.0 5.0 0.00 0.00 0.00 60 1017.3
20260504211007 60 208 3.0 5.0 0.00 0.00 0.00 61 1017.3
20260504210506 60 201 2.0 5.0 0.00 0.00 0.00 62 1017.3
20260504210005 61 197 3.0 5.0 0.00 0.00 0.00 62 1017.3
20260504205505 61 202 3.0 5.0 0.00 0.00 0.00 62 1017.3
20260504205011 61 209 3.0 6.0 0.00 0.00 0.00 62 1017.3
20260504204505 61 200 3.0 5.0 0.00 0.00 0.00 62 1017.3
20260504204005 61 201 3.0 6.0 0.00 0.00 0.00 62 1017.3
20260504203507 61 210 2.0 5.0 0.00 0.00 0.00 63 1017.4
20260504203011 61 190 1.0 3.0 0.00 0.00 0.00 62 1017.3
20260504202507 61 185 2.0 3.0 0.00 0.00 0.00 61 1017.3
20260504201507 62 200 2.0 3.0 0.00 0.00 0.00 60 1017.3
20260504201005 62 202 2.0 5.0 0.00 0.00 0.00 61 1017.3
20260504200507 62 204 2.0 5.0 0.00 0.00 0.00 61 1017.3
20260504200007 62 208 3.0 7.0 0.00 0.00 0.00 61 1017.2
20260504195506 62 201 3.0 5.0 0.00 0.00 0.00 61 1017.2
20260504195011 62 198 3.0 3.0 0.00 0.00 0.00 60 1017.1
20260504194007 62 209 3.0 6.0 0.00 0.00 0.00 61 1017.2
20260504193507 62 199 3.0 6.0 0.00 0.00 0.00 62 1017.1
20260504193008 62 204 4.0 6.0 0.00 0.00 0.00 63 1017.1
20260504192506 62 193 2.0 5.0 0.00 0.00 0.00 63 1017.0
20260504192010 62 192 2.0 3.0 0.00 0.00 0.00 62 1017.0
20260504191507 63 202 2.0 6.0 0.00 0.00 0.00 62 1017.0
20260504190506 63 208 2.0 5.0 0.00 0.00 0.00 61 1016.9
20260504190007 63 197 3.0 6.0 0.00 0.00 0.00 61 1016.9
20260504185507 64 212 2.0 5.0 0.00 0.00 0.00 60 1016.9
20260504185005 64 211 3.0 3.0 0.00 0.00 0.00 59 1016.8
20260504184507 64 207 1.0 3.0 0.00 0.00 0.00 58 1016.8
20260504183509 65 206 1.0 3.0 0.00 0.00 0.00 54 1016.9
20260504183013 65 197 1.0 3.0 0.00 0.00 0.00 51 1016.8
20260504182508 66 195 0.0 1.0 0.00 0.00 0.00 49 1016.8
20260504182007 66 194 0.0 1.0 0.00 0.00 0.00 49 1016.7
20260504181505 66 199 0.0 1.0 0.00 0.00 0.00 48 1016.7
20260504181011 66 208 0.0 1.0 0.00 0.00 0.00 47 1016.7
20260504180507 66 209 0.0 1.0 0.00 0.00 0.00 46 1016.6
20260504180010 67 220 1.0 3.0 0.00 0.00 0.00 45 1016.7
20260504175506 68 58 0.0 1.0 0.00 0.00 0.00 43 1016.6
20260504175007 68 57 0.0 1.0 0.00 0.00 0.00 41 1016.6
20260504174006 69 57 0.0 2.0 0.00 0.00 0.00 40 1016.5
20260504173508 69 42 0.0 1.0 0.00 0.00 0.00 39 1016.5
20260504173007 69 42 1.0 2.0 0.00 0.00 0.00 39 1016.4
20260504172505 69 41 0.0 2.0 0.00 0.00 0.00 38 1016.4
20260504172007 69 41 0.0 2.0 0.00 0.00 0.00 38 1016.4
20260504171506 69 41 1.0 2.0 0.00 0.00 0.00 37 1016.4
20260504171006 70 44 1.0 3.0 0.00 0.00 0.00 37 1016.4
20260504151007 73 37 3.0 8.0 0.00 0.00 0.00 35 1016.4
20260504150507 74 47 3.0 10.0 0.00 0.00 0.00 35 1016.4
20260504140507 74 46 4.0 12.0 0.00 0.00 0.00 38 1016.6
20260504130507 75 45 4.0 10.0 0.00 0.00 0.00 42 1017.0